Theta_e
308 308 308 308 308 308 308 308 308 308 308 308 308 308 309 308 309 309 309 309 309 309 309 310 310 310 310 310 310 310 311 311 312 314 317 318 317 318 317 316 314 313 313 314 315 315 315 315 315 314 316 319 319 321 321 322 326 333 335 326 325 329 327 328 322 316 318 318 318 317 317 317 316 316 317 316 317 318 318 318 317 316 316 316 316 315 317 320
308 308 308 308 308 308 308 308 308 309 308 309 309 309 309 309 309 309 309 310 310 310 310 310 310 310 310 310 311 311 311 312 315 319 320 319 319 318 317 315 314 314 313 314 315 315 316 316 315 315 319 321 320 320 321 323 324 330 330 325 330 333 328 324 319 316 316 315 318 319 317 317 317 315 316 316 317 318 317 317 316 316 317 316 314 313 317 319
308 308 308 309 308 308 308 309 309 309 309 309 309 309 309 310 310 309 310 310 310 310 310 310 310 310 311 311 311 311 312 314 321 324 319 318 320 318 316 314 314 314 313 314 316 315 315 316 314 316 320 319 321 322 323 322 322 328 326 324 332 332 324 320 318 317 316 316 318 319 319 318 317 316 316 315 317 318 318 317 316 316 317 317 316 312 317 319
308 308 308 309 310 310 310 310 310 310 310 310 310 310 310 310 310 310 310 310 311 311 311 311 311 311 311 311 311 311 313 317 322 321 315 315 316 315 315 314 314 314 314 314 316 316 315 315 314 316 317 318 322 323 324 324 322 325 324 326 332 326 319 320 319 318 318 318 318 319 320 318 317 315 316 316 318 317 317 316 316 317 316 317 317 314 316 317
308 308 309 311 312 311 311 311 311 311 311 311 311 311 311 311 311 311 311 312 312 312 313 313 313 313 313 312 311 313 316 317 318 316 313 315 314 314 315 314 314 314 314 315 316 316 316 315 314 316 317 318 321 319 322 325 321 321 322 324 327 322 319 320 318 317 318 318 318 320 319 318 317 316 315 316 317 316 315 315 316 316 316 316 315 314 315 316
309 309 310 312 312 311 312 312 312 312 312 312 312 313 313 313 313 313 313 313 314 314 314 314 314 314 314 314 313 315 316 315 316 317 315 314 314 315 315 314 314 313 314 316 315 314 316 315 314 318 317 318 319 317 319 320 318 321 322 321 321 320 318 317 317 317 317 317 317 319 318 318 317 317 316 315 316 315 314 315 315 315 314 314 314 314 316 319
310 311 312 312 312 312 312 312 313 312 313 313 313 313 313 313 313 313 313 313 313 313 313 313 313 313 314 315 316 318 318 316 316 317 317 316 315 316 315 314 314 313 315 315 315 315 316 316 315 317 317 316 317 317 317 316 317 319 321 321 320 319 318 318 317 316 317 317 317 317 317 317 318 318 316 315 316 314 314 314 314 313 312 312 313 316 318 318
312 312 313 313 313 313 313 313 313 313 313 313 312 312 312 312 312 311 311 311 310 310 310 310 310 310 313 315 319 323 321 318 316 316 319 319 317 316 314 314 314 314 315 315 315 315 316 316 316 316 316 316 316 317 316 315 317 317 317 319 318 318 318 317 316 316 316 315 315 316 316 317 317 317 316 316 316 315 314 314 314 313 312 313 314 315 317 318
314 314 314 314 314 313 313 313 312 312 312 311 311 312 312 311 311 312 312 311 310 310 310 309 309 308 310 314 319 323 322 319 318 318 319 319 316 314 314 314 314 314 314 315 314 314 315 317 317 316 316 317 316 316 316 315 317 317 316 316 316 316 316 315 315 315 315 314 313 314 314 315 316 316 316 317 316 316 315 314 315 314 314 314 314 315 315 317
315 314 314 315 315 314 314 313 312 312 311 312 312 312 313 313 314 315 315 315 314 313 312 310 309 308 309 315 322 322 321 320 320 319 317 316 314 313 314 315 314 314 314 315 315 314 315 316 316 315 317 317 315 316 316 315 316 316 315 315 315 315 314 314 314 314 313 313 313 313 314 314 315 315 316 317 316 315 314 314 314 314 316 316 315 316 315 315
315 315 315 316 317 316 315 315 314 313 313 315 315 316 316 317 318 318 318 318 316 314 313 311 309 309 313 318 323 321 319 318 318 319 317 314 314 314 314 315 316 314 314 315 315 315 315 316 315 315 316 315 314 315 316 314 314 315 315 315 315 315 315 314 314 313 312 313 314 313 313 313 314 316 316 315 315 315 314 314 314 314 315 316 317 316 315 314
315 316 317 318 317 318 317 317 316 315 316 317 318 319 319 320 320 320 319 316 315 314 312 311 308 309 315 320 321 318 317 318 317 316 316 316 316 316 315 316 317 315 315 315 315 316 316 316 316 316 316 315 315 315 314 314 313 314 314 314 315 314 314 314 313 313 312 313 315 313 313 315 314 315 316 315 315 314 314 315 315 315 314 315 317 316 316 314
317 318 319 319 318 319 318 317 316 317 319 319 320 320 320 321 320 319 317 315 315 313 312 311 308 310 316 320 317 314 315 317 317 317 317 318 318 317 316 317 317 316 316 315 316 315 315 315 316 316 316 315 316 314 313 313 313 315 314 313 315 314 316 315 314 314 313 314 315 313 315 320 319 315 315 315 314 314 316 317 316 315 315 315 316 316 318 315
319 320 321 321 320 320 318 318 319 320 320 321 321 321 320 321 320 317 316 316 315 314 313 311 309 312 317 318 315 313 315 317 318 318 317 317 317 316 316 317 317 316 315 315 315 314 314 315 315 315 315 316 316 315 314 314 314 314 313 316 316 315 320 320 315 316 315 314 314 313 316 321 321 318 317 316 316 316 317 318 316 315 314 314 316 317 318 314
320 321 321 321 320 319 319 319 320 321 321 321 320 321 321 320 318 316 316 316 314 312 311 309 311 316 317 316 314 313 314 316 317 317 317 317 316 316 315 316 317 316 315 315 314 314 314 314 314 315 316 316 315 314 316 317 318 315 314 321 321 317 320 320 316 316 316 314 313 313 317 319 318 317 318 316 316 316 317 316 315 314 313 313 316 316 314 312
321 321 320 320 320 320 320 320 321 321 321 321 321 320 320 319 316 315 315 313 312 313 314 313 314 317 317 314 314 314 314 315 315 316 317 316 316 316 315 315 315 314 315 314 313 313 313 314 314 316 316 316 314 315 318 320 322 320 316 320 322 319 318 319 319 318 316 315 313 313 317 318 318 319 319 317 316 316 315 314 313 313 312 314 316 314 312 311
321 320 319 320 320 320 320 321 321 320 321 321 321 320 320 318 315 314 313 311 313 315 316 317 315 314 314 313 315 316 316 315 315 317 317 316 316 316 314 314 313 313 313 312 313 312 312 313 314 314 315 315 316 316 320 322 324 325 321 319 321 320 318 319 322 319 315 316 315 314 314 315 317 319 318 316 315 315 313 312 314 314 313 314 315 313 311 310
320 319 320 321 321 321 321 321 321 321 321 321 320 321 320 317 315 315 314 313 313 314 315 315 315 317 317 315 315 316 316 315 316 317 316 315 315 315 314 313 312 312 312 312 313 312 312 314 315 316 315 314 314 314 319 322 321 324 323 321 321 321 319 319 320 319 316 316 316 316 315 315 315 315 315 315 313 313 313 313 314 315 314 313 313 311 310 308
321 321 321 321 322 321 321 321 321 321 321 321 321 322 320 318 317 315 316 317 318 320 322 317 317 322 321 318 316 315 315 315 315 315 313 314 314 314 314 312 312 312 313 315 316 313 314 316 316 317 317 316 315 314 316 319 318 320 320 319 320 320 320 319 318 318 318 317 317 318 318 317 316 316 316 316 314 314 314 315 314 314 314 313 312 310 309 308
321 322 322 322 322 322 322 322 321 321 321 322 322 323 325 326 326 322 320 320 319 321 324 319 318 320 320 320 317 314 315 314 314 314 313 313 313 314 313 313 314 313 315 320 320 314 314 318 319 319 319 317 316 314 313 314 315 316 317 318 319 319 319 318 317 319 318 317 319 320 319 319 318 318 317 315 315 315 315 315 314 314 314 313 311 309 308 308
321 322 322 322 323 323 323 322 322 321 322 322 321 322 324 325 327 326 324 324 319 317 320 320 319 319 320 321 318 316 318 316 314 314 313 312 313 314 314 314 315 315 317 320 321 316 314 318 321 319 318 317 316 315 313 314 315 315 317 319 320 321 320 318 317 317 316 317 321 322 319 318 318 316 316 315 315 315 315 314 314 315 314 312 310 309 308 307
321 321 321 322 323 323 323 323 322 322 322 322 320 318 317 316 318 317 319 324 322 317 318 320 319 320 321 321 318 316 319 320 316 314 313 312 312 315 315 314 316 319 318 317 318 317 315 319 320 318 316 316 315 315 315 317 317 317 319 320 321 322 321 321 320 319 316 317 323 324 318 317 318 317 315 315 315 315 314 315 316 315 312 310 309 308 307 306
322 322 321 322 322 323 323 323 323 322 321 322 320 317 316 314 313 312 314 321 322 319 319 320 319 320 320 319 317 316 318 320 320 317 313 312 313 315 315 315 316 318 318 316 318 319 319 321 319 316 315 315 315 316 317 317 318 320 321 320 322 321 320 322 323 321 318 317 320 321 318 319 318 316 316 316 315 314 313 313 313 312 310 309 308 307 306 305
322 321 321 321 321 323 323 322 323 322 320 320 320 317 316 314 312 311 316 320 321 321 320 318 318 320 319 316 314 317 319 319 320 317 313 312 314 315 316 316 316 317 317 317 318 319 320 321 318 316 316 316 316 317 318 318 320 325 326 322 322 321 320 321 322 321 320 322 324 318 321 329 325 319 322 320 315 312 312 311 310 309 308 307 306 305 305 304
321 321 321 321 323 324 322 322 324 322 321 320 319 318 316 316 313 312 318 322 323 323 319 316 318 318 314 313 314 316 318 318 317 314 312 312 314 315 317 317 316 318 319 317 317 318 318 318 319 318 318 319 319 319 320 320 321 327 329 324 323 323 322 323 325 324 323 327 325 317 323 333 330 323 324 320 315 312 311 310 309 308 307 306 305 304 304 303
321 321 322 322 324 324 323 324 323 323 323 319 319 319 317 317 314 312 318 324 326 326 322 318 318 316 312 313 314 315 319 318 312 311 311 312 312 314 316 317 318 319 320 319 320 322 319 319 319 320 322 322 322 322 322 323 322 323 326 326 326 324 322 324 324 323 326 326 321 316 321 326 322 319 319 316 314 312 311 309 308 306 305 305 304 303 303 302
322 322 323 323 325 324 324 324 323 323 325 321 319 320 319 318 315 313 320 328 330 327 322 317 316 315 312 311 311 316 323 319 311 310 311 311 311 312 314 318 319 318 318 319 324 326 321 319 320 320 321 322 323 323 323 324 323 325 326 325 326 321 319 323 319 320 325 323 321 319 317 319 320 319 317 315 314 312 310 309 307 306 304 304 303 302 302 301
323 323 324 324 325 324 324 324 323 324 324 322 321 321 320 317 314 315 323 331 332 324 318 314 312 312 311 310 311 314 316 313 313 312 309 309 311 312 314 318 318 317 316 317 325 328 321 319 322 322 320 322 326 325 323 323 323 328 325 318 320 317 317 320 316 319 322 318 323 325 317 318 325 326 318 314 315 313 311 309 307 305 304 303 302 301 301 301
323 323 324 324 324 324 323 323 324 323 323 322 322 322 320 315 314 318 324 328 327 320 316 312 310 311 311 311 312 312 309 309 313 312 309 310 310 311 314 315 314 315 316 318 323 325 321 318 321 324 323 323 327 327 326 325 322 324 322 319 323 321 320 319 316 319 319 317 325 327 319 319 327 334 324 315 317 315 311 308 305 304 303 302 302 301 300 300
321 321 322 322 322 323 323 323 323 323 323 322 322 322 319 316 318 324 327 326 324 320 315 311 313 313 312 313 313 312 310 310 311 311 311 312 311 311 311 311 311 315 320 322 321 321 318 314 314 320 321 322 325 322 321 323 319 319 322 326 327 326 326 322 321 324 320 321 329 326 321 318 323 335 326 316 318 314 310 307 304 304 303 302 301 300 300 299
319 319 320 321 322 322 322 322 322 322 322 322 322 321 320 322 324 327 328 323 321 322 316 314 315 313 313 317 317 313 311 312 311 312 314 312 312 313 312 314 315 318 324 323 320 318 316 314 316 320 318 319 322 319 319 323 320 318 324 326 324 327 330 325 324 327 322 327 335 327 322 318 321 331 323 313 315 311 309 307 304 303 303 302 301 300 299 299
317 318 319 320 321 320 321 322 321 321 322 321 322 322 324 326 324 326 327 322 323 324 319 319 318 314 315 319 320 316 314 314 312 313 316 316 316 315 315 322 321 321 325 326 324 322 320 319 318 318 317 316 320 319 321 325 322 320 324 323 322 326 327 324 325 326 324 329 332 324 321 319 322 326 318 313 313 310 308 306 303 303 302 301 301 300 300 299
315 316 317 319 320 319 320 321 320 321 322 320 322 324 325 325 323 324 326 325 326 324 321 321 318 317 318 319 320 319 317 316 313 312 316 317 318 317 317 322 323 321 324 325 326 326 327 324 317 316 318 318 320 318 321 326 321 318 321 323 325 325 323 324 325 323 321 326 327 320 317 321 325 321 313 310 308 306 306 304 303 302 301 301 301 300 300 299
312 313 314 316 318 318 319 319 320 321 320 320 324 325 323 322 322 322 324 325 325 323 322 320 318 318 319 320 322 321 319 320 315 313 316 316 318 321 320 317 317 320 321 322 324 325 328 329 323 320 320 319 317 316 324 331 322 316 320 324 326 328 327 324 323 322 322 327 328 320 318 326 328 317 308 306 304 303 304 303 303 302 301 301 301 301 301 300
309 309 310 311 313 315 316 318 320 320 319 321 324 324 321 322 322 322 324 325 322 321 321 320 320 321 322 323 324 323 321 321 318 316 318 320 321 327 329 323 317 318 321 323 325 323 323 327 324 318 316 316 316 317 321 325 321 316 318 322 324 327 328 323 323 324 322 323 324 320 323 325 318 309 305 305 304 303 303 302 302 302 301 302 301 301 301 301
306 306 307 307 308 310 312 314 318 319 320 322 324 322 320 321 323 323 324 322 319 319 320 320 321 323 325 326 325 323 318 319 321 319 320 323 324 326 329 325 319 317 320 324 325 323 322 325 321 315 316 316 316 318 316 317 321 320 318 324 324 322 320 321 325 324 319 320 320 318 322 319 312 309 306 304 304 303 303 302 302 302 303 303 302 302 301 301
304 304 305 305 306 308 308 311 317 318 320 322 321 319 318 319 321 321 322 321 318 317 319 322 323 323 325 326 325 324 320 320 322 321 324 326 322 323 323 319 317 316 317 319 322 324 325 325 321 317 318 316 312 315 315 315 320 320 320 325 322 318 318 320 323 323 320 321 320 317 319 317 317 316 308 304 306 304 303 303 303 303 303 303 303 302 302 301
302 302 304 304 304 306 307 309 315 318 320 322 320 318 318 318 317 317 318 318 317 317 319 322 322 322 325 324 324 324 321 322 323 322 326 326 320 324 323 317 316 316 316 318 321 323 323 323 321 317 318 318 314 315 318 316 316 318 320 321 319 320 323 322 321 322 321 320 320 321 320 317 319 317 309 306 306 304 303 304 303 303 303 303 303 302 301 300
300 304 308 306 303 305 306 309 315 319 321 320 318 317 318 317 315 316 317 317 317 318 319 321 320 321 323 322 322 323 321 323 325 323 323 324 321 322 321 318 318 317 319 321 321 323 323 322 321 318 316 318 319 320 323 320 314 316 319 318 318 320 320 320 320 322 322 320 319 321 320 319 318 314 310 308 305 304 304 304 304 304 303 303 303 302 301 301
302 308 311 306 304 306 307 311 316 319 319 317 315 315 316 315 316 316 315 316 318 319 318 320 320 320 320 320 320 321 320 323 325 323 323 324 322 320 320 322 321 317 320 323 321 322 324 322 322 321 317 318 322 323 325 324 320 318 318 316 317 317 317 318 318 319 321 320 319 319 320 321 317 310 308 307 305 305 306 305 306 306 305 305 305 303 302 302
303 309 310 307 306 308 310 313 315 316 317 315 314 313 312 314 317 318 318 317 318 320 318 319 321 320 319 320 321 320 320 323 324 323 324 324 322 321 320 321 321 317 320 325 323 321 322 321 323 324 320 320 324 324 323 323 323 323 320 319 319 318 317 317 317 318 319 318 318 319 319 319 314 308 308 307 306 307 307 309 309 307 307 306 305 303 302 302
303 306 309 309 309 310 311 312 312 313 315 314 313 314 313 313 314 317 320 319 318 319 318 319 321 321 321 322 322 322 323 325 326 324 324 324 323 320 317 316 318 320 322 324 321 318 320 321 322 322 321 319 320 321 319 317 318 319 318 319 320 318 317 318 318 318 318 317 316 317 318 316 312 310 309 308 308 309 309 312 311 307 305 304 303 302 301 300
304 307 309 309 311 311 310 310 311 312 314 313 314 315 315 316 316 317 319 319 318 319 319 319 319 319 320 319 318 320 321 322 324 324 324 324 320 315 313 314 317 319 322 321 318 318 320 320 319 319 319 318 317 316 316 315 316 316 316 318 319 317 316 317 317 316 316 316 316 317 317 316 315 314 310 309 311 310 309 312 312 307 304 302 302 301 300 299
305 307 308 308 310 311 309 309 310 311 311 312 313 314 313 315 316 317 318 318 319 320 319 320 318 317 319 318 317 319 318 318 320 320 321 322 317 311 311 315 316 316 317 317 317 318 318 316 315 316 317 318 317 315 314 315 317 316 314 316 317 315 314 314 314 314 314 314 315 316 316 316 317 315 310 310 311 309 307 308 308 307 305 302 301 300 299 298
304 305 307 307 309 310 309 309 310 310 310 311 311 312 312 313 314 316 317 317 318 319 318 318 317 317 318 317 316 317 317 318 319 319 318 319 316 312 310 313 316 315 313 313 314 316 317 315 314 316 316 315 314 314 314 315 315 313 312 314 314 313 313 311 311 313 313 313 313 313 312 313 314 313 310 309 309 308 307 306 304 304 304 302 301 300 299 298
304 305 306 307 308 309 310 309 310 311 311 311 311 311 311 312 313 314 316 316 316 316 316 317 317 317 318 317 316 317 317 317 317 318 317 317 315 312 310 312 313 313 311 310 313 316 315 314 314 315 315 313 312 312 313 312 312 311 311 312 311 311 311 311 311 311 311 310 310 310 310 309 309 309 307 307 307 306 307 308 306 303 302 301 301 300 299 299
302 304 306 308 308 309 310 310 310 311 311 312 312 311 312 311 311 312 314 316 316 315 315 316 316 316 317 317 317 317 317 316 316 317 316 315 313 310 309 310 310 309 309 309 312 314 312 311 313 313 312 312 311 311 310 309 309 310 310 310 310 309 309 308 309 309 309 309 308 308 307 307 307 306 305 305 306 305 305 307 306 302 301 301 301 300 299 299
300 303 305 306 307 309 309 310 310 310 310 311 311 312 313 313 311 312 314 315 315 315 314 315 315 315 317 317 316 316 315 314 314 315 314 314 313 310 309 309 308 307 309 309 310 312 311 311 312 310 309 310 309 308 308 307 307 308 307 307 308 307 305 305 306 306 306 307 307 306 305 305 304 304 304 304 304 304 304 303 302 299 299 299 298 297 296 296
300 301 301 303 306 307 308 309 309 310 310 310 311 312 313 313 312 312 314 315 315 314 314 314 314 315 315 315 314 314 314 313 313 313 312 312 311 310 310 309 307 306 307 307 307 309 311 309 308 307 308 309 308 305 305 305 305 305 305 305 304 303 303 303 303 303 304 304 304 304 304 304 303 302 303 302 302 301 299 298 296 296 296 296 295 294 294 294
299 299 300 303 304 304 306 308 308 310 310 309 310 311 311 312 312 311 312 314 315 314 313 313 314 314 313 313 313 312 313 314 314 312 310 309 309 309 310 310 306 304 305 306 305 306 308 307 305 306 308 308 307 305 305 306 306 305 304 303 302 302 302 302 302 302 302 302 302 303 303 302 302 303 302 300 299 297 295 294 294 294 295 294 293 293 294 295
297 297 298 301 304 304 305 306 308 309 310 309 309 309 309 310 310 309 309 312 313 313 313 313 313 311 310 310 311 311 310 311 312 310 309 309 309 308 309 309 307 305 305 305 305 306 308 306 305 306 306 306 304 303 305 306 305 304 303 301 300 300 300 301 301 301 301 301 301 301 301 301 301 302 299 296 295 295 294 293 293 293 294 293 292 293 295 296
296 296 296 299 303 304 303 305 307 308 308 308 308 308 308 309 309 308 309 309 309 309 310 312 312 310 309 310 310 309 308 307 306 305 305 306 305 304 305 306 306 306 306 304 304 306 307 306 306 305 304 303 302 302 303 303 302 301 301 300 299 300 299 300 300 300 300 300 300 300 300 301 302 301 298 295 294 294 293 292 292 292 293 293 293 294 295 294
Wind_Speed
2 2 1 1 1 1 2 2 2 2 3 3 3 4 4 4 5 5 5 6 6 7 8 8 9 10 11 12 13 15 16 17 17 14 10 11 9 6 7 7 5 3 3 6 6 5 3 2 5 5 3 0 1 0 1 1 2 4 3 3 1 3 3 5 3 2 1 3 5 4 1 4 2 4 2 3 3 4 6 6 6 6 7 12 20 19 10 10
2 2 2 2 2 2 2 2 3 3 4 4 4 5 5 5 6 6 6 6 7 8 8 9 10 10 11 12 13 14 17 18 16 14 11 7 4 5 4 4 4 3 5 8 8 7 5 3 6 5 4 1 1 1 0 1 2 3 3 2 3 5 5 4 3 5 3 3 5 4 3 3 2 3 2 3 7 6 7 8 6 6 9 13 19 12 7 14
3 3 3 2 2 3 3 3 4 4 5 5 6 6 7 7 7 7 8 8 8 9 9 10 10 10 11 11 12 13 16 15 10 8 5 5 5 3 2 1 2 1 4 7 7 6 6 4 5 6 3 0 2 1 1 1 1 2 3 2 6 6 5 6 6 6 5 3 3 4 4 4 5 3 1 3 8 8 7 9 7 8 9 10 12 6 9 15
4 4 3 3 3 3 3 3 4 5 5 6 6 7 8 8 8 9 9 9 9 9 10 10 10 10 10 10 10 10 12 9 3 4 2 9 7 4 4 2 3 0 5 7 6 6 7 6 3 6 3 1 2 2 2 3 2 2 4 5 7 4 4 8 7 7 6 4 3 4 6 7 5 1 2 4 7 8 8 10 10 12 11 9 10 6 8 12
4 4 3 3 3 3 3 3 4 5 5 6 7 7 8 8 9 9 10 10 10 10 10 10 10 10 9 9 8 7 7 4 2 2 5 7 5 4 2 1 2 2 7 7 4 4 5 5 1 2 2 1 3 2 3 6 4 2 4 7 7 4 4 7 6 7 6 5 5 5 6 6 3 2 2 3 6 9 10 10 10 11 11 10 10 10 6 9
4 3 3 3 3 2 3 3 4 5 6 7 7 8 8 9 9 9 10 10 10 10 10 10 10 9 8 7 5 3 3 0 3 2 4 3 2 1 0 1 2 3 9 6 3 2 2 1 2 1 1 1 3 3 6 5 5 3 5 5 7 7 6 5 5 6 7 6 6 5 5 4 5 6 4 5 10 13 13 13 11 11 12 13 11 10 8 8
3 3 2 2 2 2 3 3 4 5 6 7 7 8 9 9 10 10 10 11 11 11 10 10 10 9 7 4 2 2 2 5 9 7 8 9 6 4 3 3 2 6 10 6 3 3 2 1 1 3 2 2 4 5 6 4 4 5 5 5 7 7 6 5 5 6 6 6 8 5 5 5 7 7 2 6 13 14 15 15 13 12 13 13 10 8 10 10
3 2 2 2 2 2 2 3 4 5 6 6 7 8 9 10 10 10 11 11 11 11 10 9 9 7 4 0 0 2 0 8 14 11 11 11 9 6 4 4 4 8 10 7 6 3 3 3 4 3 1 3 3 3 4 4 2 4 4 4 3 4 5 6 6 7 9 8 7 6 9 10 9 5 4 11 17 16 15 13 12 13 12 10 9 11 10 10
3 2 1 2 2 2 3 4 4 5 6 7 7 8 9 10 10 11 11 11 11 11 10 8 7 5 3 1 3 1 4 8 12 10 9 8 7 5 4 4 6 10 9 8 9 4 2 3 5 4 2 3 2 4 3 3 3 4 2 3 4 5 6 6 7 9 10 8 6 6 13 13 6 3 6 12 16 16 12 9 11 11 11 10 10 11 10 9
3 2 1 2 3 3 4 4 5 6 7 7 8 8 9 9 10 10 10 11 11 11 10 7 6 3 3 2 5 1 5 5 7 8 7 6 5 4 5 5 6 10 8 6 8 6 3 4 4 4 4 2 2 4 3 1 4 2 4 5 5 6 7 6 8 14 12 9 7 7 14 13 3 1 6 10 13 12 9 9 10 8 10 11 9 9 8 7
3 2 2 3 3 4 4 5 6 6 7 7 7 8 9 9 10 10 10 11 10 9 9 5 3 3 5 4 4 4 4 4 7 5 4 4 3 4 5 5 5 9 9 5 6 5 2 3 1 3 2 1 1 4 5 3 2 2 4 7 8 7 9 8 10 14 9 5 8 9 11 12 1 3 9 13 13 10 9 12 12 8 9 9 9 8 6 5
2 2 3 4 4 4 5 5 6 6 6 7 8 9 9 10 10 10 10 9 9 8 6 3 3 6 5 3 5 8 5 5 6 3 2 2 3 3 5 7 6 8 10 6 3 1 1 1 4 3 2 1 1 4 3 2 2 4 3 6 9 7 8 13 11 11 7 3 5 8 4 9 3 8 13 14 12 10 9 11 11 9 7 6 7 7 6 7
1 2 3 4 4 4 4 5 6 6 6 7 9 10 10 11 11 10 9 8 8 6 4 1 5 8 5 1 6 10 11 9 6 4 4 4 4 4 6 9 8 8 9 6 2 3 3 1 4 3 2 1 2 3 0 1 3 5 3 1 6 6 6 12 8 6 5 4 6 9 2 7 8 12 13 13 10 7 9 10 10 9 7 5 6 6 7 8
1 3 4 4 4 3 4 5 5 6 7 8 10 10 11 12 11 9 9 8 7 5 2 3 8 8 4 3 5 5 11 12 9 8 7 7 5 4 7 10 10 9 7 5 3 2 2 3 5 2 0 2 2 4 4 3 2 4 3 1 3 2 6 10 6 3 3 3 5 9 4 6 9 11 11 11 9 6 9 12 12 10 7 5 6 7 7 6
1 2 3 2 3 3 4 5 5 7 7 9 10 11 12 11 10 8 8 8 5 3 2 6 9 6 1 5 5 3 7 8 8 8 7 6 5 4 6 9 8 7 6 4 2 1 2 3 4 2 2 2 1 3 4 4 3 2 2 3 2 3 5 10 9 5 4 3 2 5 3 6 8 11 11 10 8 8 10 12 13 12 8 5 6 7 4 7
1 2 3 4 4 4 4 5 6 7 7 9 10 11 11 9 7 6 7 5 3 3 5 5 6 4 1 3 1 0 4 5 6 7 6 6 5 3 5 6 4 4 4 2 1 1 2 3 2 2 1 2 1 2 3 4 4 2 2 4 4 4 3 5 7 4 4 3 2 2 2 3 5 9 12 10 9 9 11 12 11 12 8 5 6 4 7 8
0 2 4 5 4 4 4 5 6 6 7 8 10 10 10 8 4 4 4 3 4 5 5 3 3 2 2 2 1 1 4 5 7 9 8 7 6 6 8 5 2 4 2 1 1 1 2 2 1 1 1 1 2 4 4 3 4 3 2 3 4 5 3 3 6 5 4 4 2 4 3 5 7 8 11 13 12 11 13 10 9 12 8 5 5 7 9 9
1 2 4 4 4 4 4 5 6 6 7 8 10 11 8 5 2 1 2 3 3 3 3 2 2 1 2 2 2 2 4 6 8 9 9 9 9 10 8 3 4 6 4 3 1 2 1 1 2 1 1 1 2 4 2 5 5 4 4 4 4 5 4 4 5 3 2 0 3 4 6 8 9 10 11 15 15 11 13 9 8 13 8 7 7 10 9 10
2 2 2 2 4 4 5 6 6 6 7 7 10 9 4 2 1 1 1 1 1 1 0 1 3 1 3 5 4 3 4 7 8 7 9 10 10 11 7 3 6 5 4 1 1 2 2 2 4 1 2 3 4 7 9 9 7 7 7 5 5 5 5 6 6 5 3 4 5 6 8 6 8 10 10 15 15 8 9 10 10 10 6 9 9 9 9 11
4 2 1 1 3 4 5 6 6 6 7 8 9 6 2 3 2 1 1 1 3 4 3 5 6 4 6 8 3 5 5 7 6 5 8 10 10 9 4 2 4 2 2 4 3 2 4 3 2 4 6 7 9 11 11 10 8 7 7 6 6 5 5 5 6 6 4 3 6 7 5 6 7 9 11 16 13 7 9 11 9 5 7 9 9 10 10 11
5 5 4 3 3 4 4 5 5 5 5 6 7 3 2 2 1 1 3 3 7 10 8 10 11 9 12 11 4 7 4 3 2 3 8 10 9 7 2 2 4 1 3 5 2 0 3 4 6 8 10 10 10 9 8 7 7 6 6 5 5 4 5 5 5 7 4 2 5 4 5 7 9 10 15 16 11 10 12 9 3 7 9 8 10 10 9 9
8 7 6 6 5 4 4 5 5 4 4 5 7 5 3 2 2 1 1 3 8 10 10 13 14 11 16 14 5 6 3 3 1 1 7 8 6 4 2 3 5 4 3 3 2 1 2 4 9 11 10 9 8 6 6 8 7 6 5 4 5 4 4 5 5 6 4 2 5 5 5 7 10 13 17 14 10 10 8 4 5 9 9 8 9 8 9 9
10 8 7 7 6 4 4 5 3 4 6 8 8 6 3 3 3 3 3 0 6 7 7 8 9 7 9 8 3 4 3 5 3 3 8 8 3 3 3 4 5 4 3 4 5 4 3 5 11 13 8 7 8 7 7 7 5 4 5 4 6 4 2 4 5 5 4 2 3 4 5 5 8 12 13 11 7 3 7 12 11 11 11 10 9 8 9 10
11 10 8 8 7 5 5 4 2 4 5 8 9 6 3 2 3 4 2 0 4 6 5 5 3 2 2 1 1 3 3 4 2 3 10 10 4 2 3 5 6 4 5 7 8 8 6 7 9 9 7 7 8 8 7 6 4 4 5 5 5 4 4 5 4 4 5 4 2 3 5 4 6 8 8 7 4 8 9 13 13 11 10 10 10 10 10 10
11 11 10 7 6 5 5 3 2 3 3 4 6 5 4 2 3 4 2 1 3 5 3 1 1 1 1 1 1 2 2 1 1 1 7 8 4 2 2 4 4 5 7 8 8 7 7 8 6 6 7 6 7 7 7 6 3 4 4 7 7 5 5 3 3 4 4 4 3 4 5 5 5 4 9 6 7 8 5 10 12 8 8 9 10 10 9 10
14 14 12 8 6 4 3 1 2 2 1 1 2 3 3 2 2 4 2 3 3 4 0 1 0 0 1 1 0 2 3 1 2 0 3 2 1 2 2 2 1 4 7 5 3 2 5 7 6 7 8 7 7 6 5 7 4 3 4 4 6 5 2 0 3 4 1 3 3 3 1 6 4 4 13 7 7 7 5 9 9 7 8 8 8 8 8 9
17 16 14 11 9 6 2 2 3 1 1 2 1 3 3 2 1 3 2 3 3 2 2 1 1 1 2 0 1 4 2 2 1 2 2 2 2 1 1 3 1 2 2 1 1 3 4 4 4 4 5 5 6 6 5 7 6 4 5 4 6 4 2 1 2 1 3 2 5 2 3 5 4 6 13 3 9 6 6 8 7 7 8 8 8 7 8 8
18 18 16 13 11 9 6 3 2 2 3 3 0 3 4 1 2 2 3 2 3 1 2 1 1 1 1 2 3 3 1 0 2 1 2 3 2 2 0 3 2 2 2 3 3 5 1 2 4 5 4 4 6 5 4 7 5 5 5 4 4 3 3 2 3 1 2 2 5 5 4 3 4 7 6 4 9 4 5 6 6 7 7 8 8 7 7 7
15 14 12 11 10 9 8 5 2 3 3 1 1 4 4 2 2 2 3 1 1 1 0 0 2 0 1 3 2 1 1 1 2 2 2 2 1 2 1 3 1 2 3 3 5 6 2 3 6 5 4 5 5 3 3 7 4 4 3 3 4 2 2 2 4 2 2 2 4 7 4 2 5 6 3 5 6 5 5 5 5 6 6 6 6 6 6 5
10 9 8 9 9 8 7 6 6 5 4 3 3 4 4 2 1 2 2 2 1 0 1 1 1 1 3 3 1 1 2 1 1 1 2 1 2 3 0 1 2 2 3 2 3 6 2 1 2 3 3 5 4 1 2 4 4 3 5 5 6 5 4 4 2 3 3 2 6 8 7 5 3 5 2 1 4 8 8 5 4 5 6 6 5 5 5 4
9 8 9 9 9 8 6 4 6 6 6 5 3 3 2 1 2 2 4 1 1 1 1 0 0 2 3 3 2 2 2 2 2 2 1 1 3 3 2 2 2 3 3 4 4 4 2 1 2 2 2 3 5 2 3 3 3 5 5 4 4 5 4 5 4 4 2 4 7 7 6 7 4 5 3 3 1 7 9 8 9 7 6 5 4 5 4 4
8 9 10 9 9 9 6 3 3 4 5 4 2 1 2 2 0 2 2 0 0 2 2 1 2 3 3 2 2 4 3 2 3 3 3 3 2 2 2 3 3 1 3 3 3 3 2 4 4 2 2 3 6 2 3 5 5 5 4 5 3 3 3 2 3 1 2 5 6 4 1 3 6 6 3 2 4 5 6 6 9 9 7 6 5 5 4 4
7 8 9 9 9 9 7 4 4 4 5 4 1 2 4 1 3 3 2 2 1 1 1 2 2 2 2 2 1 3 3 2 4 4 3 4 3 4 5 5 6 2 2 4 1 2 3 4 2 1 3 2 7 5 2 2 1 4 4 4 4 2 0 2 3 2 3 5 6 4 1 1 5 4 0 3 4 6 9 8 7 8 8 6 5 4 4 5
5 5 6 7 8 9 8 5 3 4 6 4 3 3 3 3 3 3 5 5 2 1 1 2 2 1 2 1 3 3 2 2 4 5 3 4 3 3 4 6 6 4 1 2 1 2 2 5 2 5 2 2 7 6 5 5 3 4 5 5 5 4 3 4 4 3 3 4 5 4 3 2 3 2 3 4 5 7 9 8 7 7 6 5 5 4 4 5
3 3 4 6 8 9 8 7 4 5 7 4 3 2 4 4 2 2 4 4 2 0 1 1 2 2 2 2 3 2 3 2 2 4 3 4 4 4 3 4 7 6 3 2 2 2 4 5 4 2 1 3 5 3 3 6 1 2 3 4 2 4 4 2 3 4 3 3 4 3 2 3 2 2 4 5 6 8 7 6 7 6 5 4 4 4 5 5
3 3 4 7 10 10 10 9 7 7 6 4 2 4 5 4 3 3 3 4 3 0 1 2 1 2 4 2 3 4 2 2 1 2 2 3 3 5 5 2 4 7 5 4 3 1 3 4 3 2 3 2 4 2 2 3 1 0 2 2 4 4 4 1 3 2 1 3 4 2 2 1 2 2 3 5 6 7 6 5 6 5 5 5 4 4 3 3
3 3 4 7 11 12 12 11 9 7 4 3 4 6 4 3 5 5 2 1 2 1 1 3 2 4 4 2 3 4 1 1 1 2 2 3 2 4 5 1 1 3 3 3 3 2 2 3 3 1 1 2 3 2 3 2 2 3 2 4 3 1 2 2 1 2 2 5 4 3 5 4 3 2 1 3 5 5 4 4 5 4 4 4 3 3 3 3
3 2 4 9 14 13 13 14 13 7 3 3 7 7 4 4 6 7 5 3 2 0 2 4 3 4 4 3 3 2 2 1 2 3 1 2 3 1 3 1 2 2 2 1 1 0 2 1 4 1 2 2 1 4 3 5 3 4 3 2 1 1 1 0 1 1 4 5 4 4 7 5 4 4 4 6 7 7 6 5 5 4 4 4 4 4 4 4
4 2 2 7 12 14 14 16 13 6 2 5 8 6 4 5 6 7 7 5 4 3 3 5 4 3 3 4 3 1 3 4 3 3 1 2 4 0 3 1 0 3 5 4 3 1 1 1 3 2 0 1 4 3 1 3 3 3 2 3 2 2 3 2 1 2 3 5 5 5 6 4 2 3 6 9 9 9 8 6 5 6 6 5 5 5 5 5
5 2 2 3 10 16 17 15 10 5 5 7 7 5 3 3 5 7 7 6 4 3 5 6 6 6 5 4 3 2 3 4 4 3 2 2 2 1 0 1 2 1 4 5 4 1 2 1 3 3 3 1 1 1 5 5 1 2 2 1 1 1 1 1 1 2 3 3 4 5 6 3 2 3 4 9 10 9 8 7 6 6 6 6 6 6 5 5
4 1 2 5 14 20 18 11 6 6 6 6 6 6 5 3 3 4 6 6 5 2 2 4 5 5 4 3 3 2 2 3 4 3 3 3 2 2 2 2 2 2 3 5 3 1 1 1 2 3 3 1 4 5 5 5 4 4 2 3 3 2 1 2 4 2 3 3 3 4 6 3 2 3 2 8 8 7 8 8 6 6 7 7 6 5 5 4
2 1 3 10 20 23 15 5 4 4 4 6 4 4 4 3 3 3 2 3 4 3 1 1 4 4 3 3 3 3 2 2 3 4 3 3 3 2 1 1 1 3 4 2 1 1 2 2 1 3 4 4 6 6 2 2 4 4 2 2 3 3 3 4 6 3 2 3 2 3 5 2 1 3 2 7 7 8 8 7 6 7 7 7 6 5 5 5
1 2 4 12 21 20 9 2 4 4 5 3 1 1 2 1 3 4 4 3 3 3 2 1 3 4 4 3 3 3 3 3 4 5 3 2 2 1 2 3 2 3 4 1 2 1 3 3 0 3 4 4 5 4 4 3 1 2 1 1 2 3 3 3 4 2 1 3 3 3 4 2 2 3 0 4 5 6 6 6 7 7 5 5 6 5 5 5
2 2 2 8 16 15 6 3 5 7 7 3 1 4 2 1 3 3 3 4 3 3 3 2 3 4 4 3 3 4 5 4 4 5 4 3 2 1 4 5 2 3 1 1 2 0 1 2 2 0 3 5 6 5 4 4 3 2 1 1 2 2 1 1 1 1 2 4 6 5 4 2 2 2 1 2 5 5 5 6 6 5 5 5 5 5 5 4
1 2 1 4 11 9 3 2 2 4 7 6 6 6 4 3 4 5 4 4 3 3 3 2 2 3 2 2 3 4 5 4 2 2 2 2 1 2 5 5 4 4 0 1 2 3 2 2 3 3 4 5 4 3 2 1 2 0 1 2 2 3 3 2 1 2 3 3 3 3 3 3 3 4 4 3 4 3 5 5 4 3 5 5 5 5 5 4
1 2 1 2 4 5 2 0 1 2 3 5 6 6 7 6 3 4 6 5 4 4 3 2 1 2 1 2 3 3 5 4 3 1 2 2 1 2 3 4 5 3 1 1 3 4 3 1 3 5 6 6 5 5 3 2 0 3 4 5 6 5 4 3 2 4 3 1 3 6 6 6 8 9 7 3 1 3 5 6 4 3 5 5 5 5 5 4
1 2 3 4 3 4 4 3 4 3 2 3 3 3 7 9 5 4 6 6 5 5 3 2 3 3 3 3 4 3 4 3 3 3 3 3 2 1 2 4 5 3 1 2 3 4 3 2 3 5 6 6 5 4 1 3 2 4 5 7 8 6 4 5 4 5 2 1 7 9 6 5 8 10 10 7 5 6 7 6 5 4 5 5 5 4 3 3
1 1 2 2 2 4 6 6 7 8 6 4 2 2 2 6 7 6 4 3 3 4 4 3 4 7 7 6 4 3 3 3 3 3 3 2 2 1 2 3 2 2 4 3 2 4 4 3 3 3 4 6 4 2 3 3 2 4 4 7 10 10 8 5 6 7 5 5 10 9 6 7 9 10 11 9 8 6 5 4 3 4 4 4 4 3 1 1
1 1 2 1 1 3 5 5 7 10 10 6 4 2 1 2 5 5 2 2 1 3 4 4 4 6 8 7 6 3 4 4 3 2 2 1 2 3 1 1 2 2 4 2 1 3 3 1 1 2 1 6 5 2 2 2 2 4 7 10 12 13 10 7 9 10 8 8 10 9 10 13 12 10 10 8 4 2 2 3 4 5 5 5 4 3 1 2
1 1 1 1 1 0 1 3 7 7 8 7 7 5 2 3 4 2 1 3 3 3 3 5 4 3 4 6 7 5 6 6 5 3 4 4 2 2 1 1 1 2 3 2 1 1 2 1 0 4 3 6 4 1 2 2 4 7 10 14 15 12 10 9 10 9 6 8 10 9 11 12 9 5 4 1 2 5 5 5 5 4 5 5 2 2 3 4
2 2 2 2 0 1 1 1 5 6 5 6 8 7 4 6 6 2 2 2 5 3 3 6 6 3 3 3 5 6 5 6 7 6 6 6 4 3 2 2 3 2 1 1 0 1 2 1 0 4 2 6 3 4 3 5 5 8 13 18 18 13 9 9 8 7 8 10 10 9 8 8 5 1 2 2 4 5 4 4 4 2 2 1 2 5 5 5
3 1 2 3 1 2 2 2 3 5 5 5 7 8 6 6 4 4 3 2 3 1 2 7 8 4 3 4 5 5 5 7 6 5 5 5 4 3 3 3 5 5 3 3 1 0 3 3 1 3 2 6 3 5 5 3 2 7 11 14 14 10 8 8 7 9 11 9 7 7 7 6 4 4 4 2 3 4 3 3 2 1 3 3 5 5 5 4
Wind_Direction
338 342 338 355 8 10 7 356 353 346 348 343 343 344 341 344 343 344 345 344 340 337 338 336 340 341 340 340 338 333 329 326 322 313 289 292 293 255 276 297 301 283 196 167 160 156 150 178 221 194 142 58 123 154 282 209 81 60 82 116 223 218 214 211 219 297 273 280 298 287 355 83 316 319 338 322 331 278 276 275 256 264 264 252 260 270 262 203
323 316 306 320 325 337 338 329 333 329 330 330 332 331 329 333 330 332 333 335 335 332 334 333 336 337 338 339 337 335 331 325 319 306 295 304 286 242 260 286 295 256 186 172 175 176 165 203 225 181 113 59 259 84 315 276 108 106 135 159 225 212 227 244 269 314 326 295 302 312 355 42 286 294 354 289 286 290 288 280 264 265 273 269 272 279 236 202
295 295 298 319 332 338 331 324 326 321 323 325 327 328 327 328 327 329 329 330 332 330 332 330 332 333 336 337 338 341 332 327 322 306 328 86 133 198 178 112 343 264 192 174 181 199 205 234 214 175 121 229 246 109 107 286 208 176 147 187 241 225 256 286 295 309 310 302 324 323 323 319 281 280 350 269 280 288 273 267 269 266 263 266 280 279 204 199
282 286 297 326 348 349 332 324 320 319 322 323 326 327 325 325 325 326 325 326 327 327 327 327 328 329 333 336 340 342 334 338 327 291 92 112 126 143 138 86 9 224 181 168 185 222 245 276 209 167 138 256 283 87 155 222 207 180 149 192 235 226 259 274 287 308 318 342 340 303 314 310 281 250 288 278 288 286 263 250 250 259 261 256 271 276 199 192
282 290 311 337 353 353 335 325 320 322 323 323 324 323 322 322 323 322 321 322 321 321 321 321 322 325 332 337 340 342 352 13 292 247 138 126 124 132 123 46 355 215 180 173 198 216 254 299 44 100 90 246 306 39 223 219 173 187 203 207 226 225 256 268 288 310 310 320 314 307 306 293 289 310 265 254 266 266 266 259 245 247 255 252 264 279 239 198
281 296 326 341 349 345 336 328 323 322 320 320 320 319 320 318 318 318 316 316 315 315 315 314 316 319 328 336 341 354 35 35 254 205 172 190 172 168 338 258 289 208 180 179 206 195 235 311 57 67 109 211 253 226 247 235 157 211 258 229 229 234 243 263 289 305 307 299 285 283 278 280 318 303 241 224 249 253 264 268 261 254 256 260 265 273 264 239
279 296 324 331 333 333 329 324 317 316 314 315 316 316 316 314 315 313 312 312 310 311 310 311 311 312 323 336 333 22 99 239 257 252 251 253 245 264 276 254 259 196 185 181 201 193 181 158 155 190 164 243 231 218 256 283 174 205 263 250 241 244 248 278 302 310 308 275 258 277 311 299 287 288 267 249 259 260 265 269 270 265 263 267 267 260 259 258
279 285 313 323 321 327 321 312 309 307 307 309 312 314 314 314 314 313 313 311 309 309 309 311 309 310 321 323 113 357 249 249 263 263 258 247 239 256 253 242 218 194 191 190 204 199 165 181 212 201 199 250 238 253 282 333 295 231 254 256 270 281 280 303 309 299 294 277 271 297 298 275 256 274 301 269 271 271 266 270 275 274 273 268 262 259 255 257
278 281 313 329 320 325 313 307 306 305 306 309 312 315 316 317 317 317 315 312 312 310 312 313 304 300 286 180 102 348 258 250 264 259 245 232 230 236 222 218 201 196 197 207 218 218 180 205 226 204 188 238 270 295 317 23 292 258 280 301 317 301 292 306 301 285 281 275 274 283 278 271 255 275 280 260 262 270 274 278 272 276 280 269 259 257 252 253
277 287 322 330 322 320 311 308 309 309 312 314 317 318 319 321 321 319 315 312 312 310 312 311 297 273 227 165 103 241 261 252 259 247 225 214 210 202 194 193 193 199 202 216 229 233 216 210 225 181 172 240 264 282 332 14 255 289 350 321 295 292 297 295 290 281 277 274 255 241 263 272 253 216 271 259 254 269 292 291 274 268 269 267 262 258 254 249
285 304 331 330 326 319 313 312 315 317 321 325 327 324 323 325 323 319 316 314 312 310 310 301 272 202 178 146 138 223 257 249 250 239 206 194 176 171 185 189 192 203 208 222 243 253 239 200 139 122 184 323 317 304 313 275 282 335 344 326 305 313 310 285 277 275 273 274 234 204 250 278 304 195 250 261 266 283 295 289 285 273 261 268 269 270 277 274
289 317 333 330 326 321 320 324 328 330 329 334 334 330 329 328 325 322 319 317 316 315 311 293 213 182 157 133 215 233 237 229 234 225 192 192 184 179 192 199 199 206 212 220 236 7 58 153 92 107 233 343 349 311 291 258 355 323 328 324 304 330 310 278 268 262 254 249 200 158 255 288 255 229 244 258 272 292 296 285 285 281 275 279 282 292 302 290
285 333 336 324 322 324 329 337 338 335 335 338 335 333 332 329 328 325 323 323 321 318 311 257 185 176 155 203 243 236 233 229 228 232 229 231 237 223 205 200 195 203 213 214 196 83 59 78 105 152 222 79 277 281 286 25 7 317 333 266 290 345 305 272 263 257 257 240 169 141 228 279 251 247 250 260 275 297 302 291 289 291 293 298 304 307 297 296
315 340 333 324 334 342 347 352 345 338 338 337 335 332 329 329 328 326 326 325 326 326 310 167 168 161 147 253 264 248 234 232 236 242 242 236 228 206 203 201 198 204 214 213 191 107 57 56 82 100 249 141 237 306 346 355 337 301 321 216 276 314 278 280 282 281 286 274 156 148 204 264 261 267 263 268 281 291 298 295 292 293 301 321 312 291 296 341
299 346 350 359 36 33 13 4 349 342 338 334 333 327 324 326 325 327 331 331 339 350 108 142 160 146 55 280 278 270 227 224 231 233 233 219 201 191 200 203 205 208 217 219 191 123 79 72 79 88 286 259 243 334 344 341 320 283 289 306 284 207 263 296 295 278 234 280 56 135 205 264 267 275 274 277 284 287 290 285 289 295 308 328 298 294 343 36
289 29 59 74 66 44 25 10 352 341 335 334 329 322 322 321 322 331 333 342 23 82 103 125 158 144 3 277 273 346 210 206 207 200 190 193 202 188 160 166 187 193 204 224 194 143 104 90 90 143 224 291 180 120 37 1 323 302 199 245 256 229 269 300 302 303 149 126 6 197 225 272 268 273 277 279 280 288 285 281 295 299 305 328 311 349 50 55
338 85 89 75 57 39 27 6 354 342 339 338 326 322 320 311 314 347 3 47 91 100 87 92 153 153 286 252 311 282 204 191 192 185 179 185 190 165 146 136 152 159 133 67 103 127 101 104 161 151 125 248 159 104 51 335 288 302 248 229 245 240 243 281 302 325 82 109 240 256 242 246 266 283 289 287 283 285 281 288 307 293 305 357 14 56 65 56
180 107 89 64 44 29 17 4 358 347 346 340 328 327 322 304 288 311 55 80 94 86 50 48 113 117 266 225 235 228 182 182 186 187 191 184 172 167 162 145 139 130 90 36 41 99 51 29 102 67 315 208 135 122 176 235 228 245 253 254 268 255 247 272 281 288 10 4 251 278 266 256 272 279 282 282 278 280 286 299 300 292 327 41 65 74 69 60
202 147 82 45 28 14 4 4 4 352 348 344 335 335 348 2 326 239 192 81 79 103 300 194 158 168 253 251 238 188 163 173 175 186 189 176 168 175 180 147 127 120 98 52 295 154 133 53 74 110 236 210 192 188 206 221 216 226 244 251 261 267 267 266 264 265 301 310 281 271 269 273 276 273 277 276 275 279 288 292 288 298 17 77 85 79 72 65
212 221 261 333 1 3 1 2 6 0 351 348 344 345 42 39 11 347 317 253 218 231 238 209 204 224 272 278 228 156 165 172 178 193 181 171 163 163 176 129 101 81 132 153 212 204 141 135 161 199 216 216 216 214 218 229 230 237 253 261 259 265 273 269 271 279 309 322 267 258 285 300 288 286 280 276 288 303 280 278 292 345 71 96 90 84 77 70
223 238 254 276 312 346 3 2 10 14 3 4 11 27 116 93 83 303 305 287 255 250 252 242 235 235 251 259 189 157 186 197 193 179 171 167 153 151 182 134 116 214 225 164 166 294 135 178 219 220 218 222 227 225 228 243 248 249 251 262 271 259 257 266 270 279 316 349 263 290 337 308 293 289 278 280 301 297 278 282 318 77 90 92 87 82 75 72
227 236 254 271 289 327 356 5 17 35 47 57 59 78 120 117 121 155 214 302 283 261 251 253 254 251 253 258 223 176 214 243 255 194 173 162 151 179 193 133 148 207 224 148 112 124 164 218 238 230 222 231 247 247 243 252 256 262 273 285 282 265 273 294 289 295 353 22 269 306 325 293 284 278 276 282 287 284 300 12 82 100 91 76 78 78 74 70
231 237 255 273 285 316 354 8 31 57 65 73 74 86 105 100 134 147 141 254 292 271 246 246 251 255 258 260 211 168 198 220 243 237 185 160 148 208 166 155 182 195 196 180 171 172 189 233 236 232 225 231 254 258 250 260 270 262 265 276 273 268 276 289 296 318 340 288 257 299 306 289 277 276 281 282 282 330 51 73 78 83 83 76 74 68 66 68
236 239 246 265 283 314 356 6 46 72 72 76 73 81 91 85 159 157 131 168 283 276 254 233 224 213 232 262 116 140 176 205 231 225 187 165 143 162 165 181 185 188 209 203 193 194 213 225 221 221 217 214 236 256 253 254 279 263 228 225 246 259 238 234 277 326 329 316 350 5 333 300 263 274 284 292 31 61 73 81 74 71 81 82 75 67 61 61
239 244 247 260 282 308 346 0 92 96 106 93 71 75 83 64 180 164 99 32 289 290 286 234 78 99 127 68 114 150 138 192 301 211 183 173 156 143 195 202 178 201 220 215 209 214 235 235 219 224 229 212 215 244 242 213 245 288 240 214 215 224 229 240 320 10 16 335 334 35 5 292 271 278 272 283 57 63 54 75 78 72 74 75 73 71 66 63
239 243 247 256 265 277 323 337 162 110 93 139 74 60 56 37 162 172 94 44 298 278 210 142 46 130 138 63 124 110 79 287 279 91 137 163 239 149 209 245 185 207 213 216 230 232 230 218 203 219 232 227 220 239 228 175 160 278 248 190 167 167 170 333 13 32 60 260 285 46 56 268 293 283 266 272 84 86 63 70 78 73 69 71 71 71 70 69
240 242 243 248 245 238 237 171 193 197 111 178 143 30 14 25 169 196 96 33 291 227 126 293 346 127 163 36 76 103 111 253 323 26 68 38 334 91 199 260 199 218 220 113 7 266 220 181 146 162 192 205 215 240 225 158 141 242 236 144 123 132 163 200 82 80 223 250 313 309 197 258 296 256 260 246 100 97 79 74 70 71 72 72 72 73 75 72
238 240 241 240 230 218 210 191 180 151 153 172 1 353 351 338 213 182 84 24 282 149 115 293 66 103 120 42 59 103 189 246 98 307 351 36 2 62 177 246 187 253 296 124 200 271 267 166 194 167 152 188 208 233 201 142 147 239 221 134 113 139 173 171 109 135 263 14 318 276 195 246 274 260 277 95 116 133 108 92 74 72 69 71 71 63 69 74
227 227 226 219 209 208 211 215 196 158 167 168 324 327 336 289 219 92 88 213 304 58 46 61 111 118 48 56 37 121 153 27 145 231 341 44 46 85 183 236 172 292 291 164 205 260 281 199 205 154 150 210 217 239 153 139 179 228 160 87 46 57 81 75 107 121 6 37 260 251 190 201 271 281 317 91 131 168 129 96 75 74 65 67 71 59 52 58
204 198 192 184 184 191 201 219 222 212 223 241 284 315 321 265 146 93 182 206 39 92 160 84 129 149 102 97 328 219 165 143 153 95 23 62 39 37 247 261 64 47 330 345 257 252 268 277 223 151 180 202 169 90 77 125 160 122 79 48 16 4 27 44 83 92 50 307 249 238 204 192 271 290 261 159 183 169 144 129 120 95 79 72 66 66 53 40
175 173 171 170 169 170 175 208 219 214 224 235 273 311 321 34 83 153 205 186 49 214 156 92 187 138 144 145 161 196 173 177 162 113 85 90 50 31 13 5 33 44 4 333 299 273 289 303 248 240 218 134 105 83 20 35 89 94 75 65 29 339 8 28 5 44 86 253 260 251 209 186 225 268 256 294 244 150 140 146 145 122 103 94 70 66 58 43
163 163 161 162 161 164 168 167 166 179 195 203 250 345 68 55 70 189 211 17 67 209 175 189 193 183 196 173 172 191 178 190 185 151 150 145 131 174 188 181 167 44 329 257 281 313 263 230 229 275 313 122 116 120 333 357 36 79 83 81 67 338 359 9 322 355 203 246 256 249 152 171 230 250 237 7 36 85 96 115 131 123 115 105 80 68 53 41
164 158 158 166 167 173 176 150 118 139 155 149 91 51 81 141 221 187 196 236 237 199 135 128 170 183 144 99 243 200 169 202 189 173 166 143 151 221 242 224 181 163 246 214 240 323 300 293 238 176 308 170 142 156 229 291 102 131 136 129 133 138 28 268 264 266 261 269 263 251 349 285 261 280 40 83 71 86 91 95 109 114 115 111 100 89 62 48
175 164 168 180 185 193 193 175 141 141 149 132 73 67 110 200 225 193 205 235 259 218 106 86 134 120 88 169 224 179 156 248 183 165 168 142 153 232 252 248 214 185 180 189 225 202 227 299 235 173 257 199 165 179 176 152 161 180 161 142 147 155 178 221 234 233 249 275 279 282 296 233 218 324 29 76 82 85 91 98 99 97 103 109 107 96 73 59
212 199 204 210 210 212 205 199 191 161 153 123 88 139 193 204 201 193 215 242 281 266 12 0 97 93 305 261 248 206 179 245 191 150 170 170 176 207 208 225 212 184 144 176 236 185 194 257 252 207 310 154 170 215 134 115 133 227 133 113 170 189 180 207 238 209 203 278 282 265 255 213 150 53 43 69 73 75 81 90 96 96 99 98 90 78 69 66
246 243 242 232 228 223 210 206 200 179 159 114 135 212 213 196 179 188 210 219 233 269 317 300 111 158 262 268 272 266 205 217 205 127 209 209 198 219 208 211 211 189 167 175 213 192 199 259 291 13 14 129 174 211 93 126 209 314 102 183 225 194 147 135 288 260 188 259 257 215 249 275 86 61 64 75 75 82 85 91 104 109 99 93 92 93 92 93
231 245 245 236 233 224 211 205 195 186 160 124 196 222 206 197 201 202 213 182 189 148 206 252 198 179 226 238 252 255 204 255 213 148 233 244 235 230 194 162 315 199 186 191 212 192 163 259 287 132 95 245 188 118 21 10 115 121 178 224 239 0 76 103 286 301 267 255 258 248 256 251 216 228 158 123 119 115 119 116 111 103 96 110 141 154 159 156
194 205 244 241 230 218 207 197 186 174 138 175 226 236 210 206 206 204 224 249 240 158 163 226 212 178 194 204 237 240 161 190 199 167 207 238 236 222 133 143 351 3 352 43 174 231 104 250 291 245 167 273 21 73 7 338 40 122 189 223 94 86 295 299 140 219 250 256 273 264 255 244 210 202 179 175 168 153 154 148 139 148 157 172 189 197 196 181
155 125 281 245 216 206 196 182 173 159 164 211 226 235 219 223 222 216 226 234 234 234 222 227 219 206 210 192 203 213 168 189 194 176 180 216 230 36 87 150 48 5 357 60 129 245 63 162 274 307 201 329 18 63 183 284 339 33 35 10 45 147 186 212 187 171 224 253 272 267 258 254 233 214 192 184 173 160 161 162 171 183 185 191 195 196 197 192
147 110 299 202 179 185 176 162 162 174 202 218 220 219 226 237 233 230 225 208 204 216 217 218 213 221 236 211 195 192 184 201 194 187 209 207 229 282 91 133 109 34 3 49 97 76 51 139 237 303 335 26 20 209 178 180 192 53 41 357 356 91 133 243 232 144 161 231 258 260 257 253 283 287 195 168 159 152 155 162 179 190 189 195 197 193 193 192
141 117 253 152 160 167 155 146 178 190 201 231 230 221 230 243 250 250 238 221 222 219 175 197 206 207 215 216 208 178 170 216 201 197 230 228 242 255 197 132 131 148 36 38 53 80 72 156 202 282 306 205 222 228 178 156 159 143 157 204 190 160 151 270 266 190 155 210 222 249 263 245 257 304 98 127 137 146 156 167 183 201 200 200 200 189 180 174
117 180 169 146 159 163 149 149 204 182 215 233 218 211 219 228 240 237 232 228 228 227 159 201 210 198 190 199 201 165 150 223 211 202 230 233 229 231 177 167 167 118 100 80 257 159 111 108 149 259 258 232 241 248 240 261 228 176 168 209 191 176 166 219 250 223 169 237 228 254 266 216 212 281 114 125 144 160 169 175 184 203 205 193 187 173 156 161
137 160 148 150 164 167 155 187 197 194 233 225 147 219 198 208 237 211 197 205 211 210 208 207 210 218 218 192 178 192 197 213 215 208 218 221 205 237 327 316 341 72 83 140 248 8 73 90 130 271 287 302 297 311 9 357 231 164 336 342 153 181 180 193 227 208 163 246 242 252 252 218 242 278 190 118 133 154 181 190 189 201 200 173 166 160 156 164
161 124 132 171 178 177 179 210 193 208 229 229 257 240 218 251 229 193 199 208 188 171 180 210 225 223 225 192 171 204 213 220 241 230 209 195 189 33 2 353 41 89 60 199 191 187 82 131 129 219 298 318 331 341 3 11 43 112 230 265 156 168 184 115 175 192 211 221 223 238 248 226 236 273 270 135 139 168 208 209 198 198 187 164 157 157 157 149
140 99 38 193 193 198 213 204 174 209 222 229 249 241 234 251 210 175 194 214 193 170 169 225 229 181 200 203 179 208 213 200 233 247 180 153 240 6 12 11 58 105 180 269 131 122 137 163 138 137 216 249 268 263 236 288 342 326 234 268 242 208 216 220 212 237 242 227 214 229 245 256 264 260 239 185 151 197 242 244 236 194 168 160 152 153 154 145
135 146 127 160 205 229 250 158 167 217 206 209 239 237 219 229 227 181 195 216 220 196 179 199 157 122 169 183 165 216 230 194 174 194 145 138 241 328 13 35 56 96 168 27 54 88 110 186 178 166 200 227 232 234 207 131 180 263 267 278 274 246 208 184 195 222 225 284 266 243 242 261 277 278 270 261 298 291 277 266 249 176 145 146 150 156 162 171
148 168 170 157 188 222 226 227 217 217 214 195 217 239 215 215 225 217 208 214 211 196 197 206 165 165 204 174 162 216 227 199 195 197 176 145 134 339 17 60 59 57 80 47 37 84 102 256 229 189 215 237 230 242 346 79 150 222 245 268 276 269 216 177 208 224 184 266 263 254 253 261 270 281 286 292 304 301 285 263 231 172 149 144 144 151 169 213
183 161 192 166 165 205 212 214 206 212 234 239 233 290 239 201 198 208 216 206 194 192 206 230 200 192 192 167 165 210 200 196 232 216 185 135 111 111 17 35 32 34 52 32 10 85 117 241 247 180 231 263 265 295 35 66 182 212 231 255 264 264 249 219 230 233 209 235 259 268 283 274 265 274 284 293 297 287 264 236 186 133 123 118 120 130 158 250
192 252 270 333 94 205 212 196 188 208 224 234 244 248 192 177 201 217 210 122 212 236 199 209 223 202 191 172 161 188 195 187 224 240 180 125 118 147 125 8 330 38 67 65 354 78 113 233 278 109 273 288 284 297 40 47 275 268 261 255 253 257 256 245 244 242 229 234 252 266 275 272 271 273 279 284 271 212 132 102 96 100 109 107 110 132 199 268
169 206 267 13 52 219 236 184 183 205 219 222 236 230 166 194 225 249 46 142 182 257 202 184 190 167 176 175 168 199 213 176 167 185 164 145 148 157 157 205 216 49 58 88 315 3 83 170 210 86 39 301 286 119 123 200 233 263 271 264 258 258 258 253 252 255 252 249 250 253 260 267 276 280 277 284 96 92 82 82 91 110 127 113 97 233 243 262
189 156 136 95 136 186 105 164 176 196 217 215 226 228 207 221 219 203 303 186 154 191 204 176 165 121 100 147 167 204 210 157 153 172 161 154 171 177 180 189 154 119 79 142 164 8 79 160 295 80 68 281 269 125 186 223 230 260 266 261 258 254 248 248 245 237 237 248 255 254 250 255 263 203 119 72 71 90 110 109 89 90 153 146 273 262 249 255
181 168 135 110 85 212 173 141 163 197 215 201 216 228 225 227 204 180 251 316 86 132 210 158 152 128 118 169 188 200 180 146 143 154 144 131 126 118 121 143 142 139 155 168 170 141 133 143 167 118 167 271 266 143 170 190 248 267 259 252 251 247 238 244 247 239 235 238 245 249 245 235 207 166 163 160 117 130 165 158 131 249 259 251 253 254 250 254